星链-34365 (STARLINK-34365)

导读

STARLINK-34365是美国于2025年6月28日发射的星链卫星,隶属于美国太空探索技术公司SpaceX打造的星链星座项目。星链项目旨在构建全球卫星互联网星座,为全球偏远地区、海洋等场景提供高速网络接入服务,该卫星进一步扩充了星链星座的在轨规模,推进全球卫星互联网组网进程。

基本信息
目录编号:
64671
目录名称:
STARLINK-34365
国际标识:
2025-139H
轨道中心:
EARTH
卫星名称:
星链-34365
卫星全名:
星链-34365 (STARLINK-34365)
卫星状态:
在轨 (已飞行434 天)
发射日期:
2025-06-28 UTC
国别 :
美国 (US)
星等 :
--
轨道信息
数据来源 国际轨道数据
星历时间: 2026-09-04T23:18:21+0800
21小时前
查看轨道信息
半长轴: 6840.824km
偏心率: 0.0000401
轨道倾角: 53.161°
近地点辐角 17.797°
升交点赤经 12.173°
平近点角 342.305°
近地点: 462.412km
远地点: 462.962km
周期: 93.847分钟
每日圈数: 15.344058
详细信息
固有亮度:
5
最大亮度:
2.5
卫星平台:
Starlink V1.0
覆盖范围:
全球
运营商:
太空探索技术公司
运营商所在国:
美国
制造商(研发单位):
太空探索技术公司
制造商所在国:
美国
使用方式:
暂无
卫星简介
Starlink 计划是 SpaceX 推出的全球卫星互联网项目,通过发射低轨道卫星,为全球尤其是偏远地区提供高速、低延迟的互联网服务。自 2019 年起,Starlink 已部署数千颗卫星,旨在缩小全球数字鸿沟,推动互联网普及。该项目还为军事、航空等行业提供通信支持,带来广泛经济效益。
2D轨道图
3D轨道图
轨道高度分析图
轨道倾角分析图
轨道综合分析图
查看轨道综合分析图
交会数据列表
事件ID 空间交会对象 最接近时刻(TCA) 交会距离 交会风险概率(CRP) 交会风险指数(CRI) 操作
CDM_260906-205606-125606-467121
2026-09-06T
20:56:25+0000
0.729 km
远距离
4.493892E-5 中风险 0.68
CDM_260907-083906-125606-467121
2026-09-07T
08:39:51+0000
1.314 km
极远距离
6.135557E-6 低风险 0.51
CDM_260907-192306-467106-804921
2026-09-07T
19:23:50+0000
2.105 km
极远距离
1.686284E-6 低风险 0.4
CDM_260906-223006-125606-467121
2026-09-06T
22:30:12+0000
2.258 km
极远距离
1.347612E-6 低风险 0.38
CDM_260903-181605-113206-467122
2026-09-03T
18:16:11+0000
2.761 km
极远距离
1.325533E-6 低风险 0.37
CDM_260906-024305-186706-467121
2026-09-06T
02:43:30+0000
2.677 km
极远距离
1.170518E-6 低风险 0.36
CDM_260906-192206-125606-467121
2026-09-06T
19:22:37+0000
2.612 km
极远距离
1.03924E-6 低风险 0.35
CDM_260907-070606-125606-467121
2026-09-07T
07:06:04+0000
2.730 km
极远距离
9.735132E-7 极低风险 0.35
CDM_260906-235605-212206-467121
2026-09-06T
23:56:04+0000
2.355 km
极远距离
7.846476E-7 极低风险 0.33
CDM_260907-052805-340006-467122
2026-09-07T
05:28:26+0000
2.582 km
极远距离
6.224617E-7 极低风险 0.31